EHI
0 1 2 2 1 0 0 0 0 0 1 0 0 0 0 1 2 3 3 1 1 4 6 7 7 6 6 6 5 4 4 6 7 6 6 6 5 4 4 3 1 0 0
1 2 3 3 2 1 0 0 0 0 1 0 0 1 2 3 4 5 4 1 1 4 8 9 7 6 7 7 5 5 5 6 6 5 4 4 4 3 3 3 1 0 0
1 2 4 5 4 3 2 1 1 1 1 0 1 3 5 6 6 6 4 2 1 3 7 8 6 6 7 6 5 6 6 6 6 4 2 2 3 3 3 3 2 1 1
2 3 5 7 6 5 4 3 2 1 0 0 2 4 6 6 5 4 4 3 1 1 3 5 5 5 5 6 6 6 7 6 5 2 1 1 2 3 3 3 2 1 2
2 3 5 8 8 7 6 4 2 1 0 1 2 4 5 4 3 3 3 2 1 0 1 2 4 4 4 5 5 5 5 4 3 1 0 1 1 3 4 3 2 2 3
2 2 6 9 8 7 6 4 2 1 0 1 2 3 3 3 2 3 3 2 2 1 1 2 3 3 2 3 4 4 4 2 1 0 0 0 1 2 4 3 1 1 2
1 2 5 7 7 7 6 5 3 1 0 1 2 3 3 2 1 2 3 3 2 2 3 3 3 2 1 2 3 4 3 1 0 0 0 0 0 1 3 2 1 0 1
2 2 4 5 6 6 6 5 3 1 0 0 1 1 2 2 1 2 2 2 3 3 4 4 4 2 2 3 3 4 3 1 0 0 0 0 0 1 2 1 0 0 0
2 2 2 4 4 4 5 4 3 1 0 0 0 1 2 3 3 2 3 3 4 4 5 5 5 5 4 4 5 5 5 3 1 0 0 1 1 2 2 1 1 0 0
2 1 3 4 2 1 2 2 2 1 0 0 0 2 3 3 3 3 4 5 5 4 4 5 6 6 6 6 7 7 6 4 2 1 0 1 2 3 3 3 2 1 0
2 2 3 3 1 0 0 1 1 0 0 0 1 2 2 2 2 3 5 6 5 4 4 5 5 5 5 6 7 6 4 4 3 1 0 2 5 6 5 4 4 2 1
3 2 1 1 0 0 0 0 0 0 0 0 1 2 2 1 1 2 4 5 4 4 5 5 4 4 4 4 4 4 3 3 3 1 2 5 8 8 7 6 5 4 3
2 1 0 0 0 0 0 0 0 0 0 0 1 2 2 1 0 1 2 3 3 3 4 4 3 3 3 3 3 3 3 3 3 2 3 6 9 8 7 7 6 5 4
2 1 0 0 0 0 0 0 0 0 0 1 2 2 2 1 0 0 0 1 2 3 3 3 3 2 2 2 2 3 3 3 3 2 3 6 8 7 6 6 7 6 4
1 1 0 0 0 0 0 0 0 0 1 2 2 1 1 1 0 0 1 2 3 3 3 2 1 1 1 1 1 1 2 2 2 1 2 5 7 7 5 5 6 5 5
2 2 2 1 0 0 0 0 0 0 1 2 2 1 0 0 0 1 2 3 3 2 1 1 0 0 0 0 0 1 1 1 1 1 2 3 6 6 5 4 5 5 5
4 4 3 2 0 0 0 0 0 0 0 1 1 0 0 0 0 2 3 2 1 1 0 0 0 0 0 0 1 2 2 1 1 2 2 3 4 5 5 5 6 6 6
7 5 3 1 0 0 0 0 0 0 0 0 0 0 0 0 0 1 2 1 0 0 0 0 0 0 0 0 1 2 2 1 1 2 2 2 2 2 3 5 7 7 7
7 5 3 1 1 0 0 0 0 0 0 0 0 0 0 0 0 0 0 0 0 0 0 0 0 0 0 0 1 2 2 1 0 1 1 1 1 1 1 3 6 8 9
5 5 4 3 3 1 0 0 0 0 0 0 1 0 0 0 0 0 0 0 0 0 0 0 0 0 0 0 1 2 2 1 0 0 0 0 0 1 1 2 4 6 7
7 7 7 6 5 3 1 0 0 0 0 0 0 0 1 1 0 0 0 0 0 0 0 0 0 0 0 0 0 1 1 0 0 0 0 0 0 1 2 2 2 3 4
14 13 10 8 6 3 1 0 0 0 0 0 0 0 1 2 1 1 1 0 0 0 0 0 0 1 1 0 0 0 0 0 0 0 0 0 0 0 1 1 1 1 1
20 17 12 9 6 5 2 1 0 0 0 0 0 0 1 2 2 2 2 2 1 2 2 2 1 1 1 0 0 0 0 0 0 0 0 0 0 0 0 1 2 2 1
22 18 12 8 8 7 6 4 1 0 0 0 0 0 0 1 2 3 4 5 4 4 4 4 2 1 1 1 1 0 0 0 0 0 0 0 0 0 0 1 2 2 1
25 21 14 10 8 8 9 8 4 1 1 1 1 0 0 1 2 4 6 7 6 5 5 4 2 1 1 2 2 1 1 0 0 0 0 0 0 0 0 0 1 1 0
30 25 18 12 8 7 9 9 6 2 2 2 1 0 0 1 2 5 7 8 7 6 5 4 3 2 2 4 3 2 2 1 0 0 0 0 0 0 0 1 1 1 0
Wind_Speed
2 2 7 8 9 9 10 10 11 11 12 13 13 13 13 14 14 14 14 13 15 16 16 16 16 16 17 18 18 18 18 17 18 19 18 18 17 16 16 16 15 11 16
5 4 8 8 9 10 10 11 11 11 12 13 13 13 13 13 13 14 14 14 14 16 16 15 16 17 17 17 17 17 17 17 17 18 18 16 16 16 15 15 14 10 15
7 4 7 8 9 10 10 11 11 11 12 12 12 13 12 13 13 13 14 14 15 16 16 16 16 17 17 17 16 16 16 16 17 17 15 8 10 14 14 15 14 15 14
7 4 6 9 10 10 10 11 11 11 12 12 12 12 13 12 13 13 13 15 15 15 16 16 16 17 17 16 15 15 15 15 16 15 8 6 7 14 14 14 14 14 14
6 4 6 10 10 10 10 11 11 11 12 12 13 13 13 12 12 13 14 15 15 15 15 16 17 17 16 15 14 13 14 13 13 11 6 6 6 12 14 14 14 13 13
6 4 7 11 10 11 11 11 11 11 11 12 12 12 12 12 13 13 14 15 16 16 15 16 16 16 14 13 13 13 12 12 10 7 6 6 5 12 13 13 13 13 12
6 4 6 10 11 11 11 11 11 11 11 11 12 12 12 12 13 14 15 15 16 15 15 15 15 14 13 12 11 11 11 11 7 6 6 5 6 12 13 13 12 12 12
8 5 5 9 9 10 11 11 11 11 11 11 11 12 11 12 14 15 15 15 15 15 14 13 13 12 11 10 9 9 9 9 8 7 6 5 9 11 12 12 12 12 11
7 5 3 4 5 9 10 10 10 10 11 11 11 11 11 12 13 14 13 14 14 14 13 11 11 10 9 8 8 7 8 9 6 5 7 4 10 12 12 12 12 11 11
6 5 4 3 3 3 5 9 10 10 10 10 10 10 10 11 12 12 11 12 13 12 12 10 9 8 7 7 6 6 7 7 5 5 3 5 11 12 12 12 11 11 10
6 4 4 3 3 3 4 6 7 9 9 8 8 9 8 4 5 6 9 11 11 11 10 9 8 7 6 5 4 5 5 3 4 4 3 9 12 13 12 12 11 11 10
6 5 4 4 4 3 4 3 2 3 3 3 3 4 3 3 3 5 8 10 10 9 8 7 6 4 3 2 2 3 2 4 3 3 5 11 12 12 12 11 11 10 10
7 6 5 5 5 4 3 3 2 1 2 2 3 3 3 3 3 3 2 3 4 5 3 3 2 1 1 1 1 2 3 3 3 3 5 12 12 12 12 11 11 10 9
6 5 5 5 5 4 4 3 3 2 2 2 2 4 3 3 3 2 2 2 2 1 2 2 1 1 1 1 2 2 3 2 2 2 5 12 11 11 11 11 11 10 9
6 5 5 5 5 5 5 4 4 3 3 3 2 3 4 4 4 3 2 2 2 1 2 2 1 1 1 1 2 4 4 4 3 3 3 11 11 10 11 11 10 10 9
6 6 6 6 6 5 4 3 3 3 3 3 3 3 4 4 3 3 3 2 2 2 2 2 2 2 1 1 2 3 4 3 3 3 3 6 10 10 9 10 10 9 9
7 6 6 6 5 5 5 4 3 3 4 3 3 4 4 4 4 4 3 3 2 2 2 2 2 2 1 1 1 2 2 3 4 3 3 3 4 8 9 9 9 9 9
7 7 6 7 6 5 5 4 3 3 4 3 3 3 4 4 4 4 3 2 2 2 2 2 2 2 1 1 1 1 1 2 4 4 3 3 2 3 6 9 8 8 9
8 7 6 6 6 5 4 4 4 3 3 3 3 3 3 4 4 3 3 2 2 2 2 2 2 2 2 1 1 1 0 1 2 4 3 4 3 3 2 5 8 8 9
7 7 6 6 6 5 4 3 3 3 2 2 3 3 4 4 4 4 2 2 3 3 2 2 2 2 2 2 2 1 1 0 1 2 3 3 3 4 3 3 3 4 7
7 6 6 6 5 4 3 3 3 2 2 2 2 3 4 4 4 4 3 2 3 3 3 3 3 3 1 2 2 2 2 1 0 1 2 2 3 4 4 4 3 2 2
8 7 7 6 5 5 4 3 3 3 2 2 2 2 3 4 4 4 3 3 3 3 3 3 3 2 1 2 2 2 1 3 2 1 1 2 3 2 3 4 4 3 2
8 8 8 6 6 5 4 3 3 2 2 1 1 1 2 4 4 4 4 3 3 3 3 3 3 4 2 1 2 3 3 2 1 2 1 1 2 2 2 3 4 3 3
10 9 7 7 6 5 5 5 5 4 3 3 3 2 2 3 4 4 4 4 4 3 3 3 3 3 3 2 1 1 2 4 3 0 2 1 0 1 2 2 3 3 3
10 9 8 7 6 5 5 6 5 4 3 2 2 2 2 2 3 4 4 4 4 3 3 3 3 3 3 3 2 1 1 1 2 3 1 1 1 1 1 2 2 2 2
9 8 7 7 6 6 6 5 6 6 5 4 3 3 2 2 2 3 3 3 4 3 3 3 3 3 3 3 2 2 2 2 2 3 2 2 1 1 1 1 2 2 2
Wind_Direction
153 147 110 103 99 99 97 94 93 91 94 97 98 98 102 112 116 117 119 121 127 128 125 122 122 122 123 124 126 126 124 124 126 125 122 120 120 120 118 116 113 111 113
152 145 118 110 104 101 100 99 97 96 95 98 99 100 101 113 116 115 117 119 124 128 127 122 121 123 123 125 126 126 125 127 127 125 123 122 122 122 121 119 117 119 119
134 132 124 115 110 107 104 103 101 100 98 99 100 102 103 112 116 117 118 120 123 124 123 121 122 123 122 123 124 126 129 129 127 124 121 117 123 125 123 123 122 121 120
131 132 123 118 115 111 109 107 107 104 102 100 100 104 107 110 116 119 119 119 121 122 122 122 124 124 125 126 126 127 130 130 128 124 117 116 122 125 124 124 125 124 122
124 125 130 121 117 113 112 112 112 110 107 103 101 103 105 109 113 115 116 118 119 118 121 124 126 127 129 129 129 129 128 127 126 120 113 113 117 129 129 128 127 126 125
125 122 128 124 120 117 116 114 114 113 110 108 106 105 104 110 116 116 116 119 119 118 119 124 127 129 130 133 133 131 130 127 119 114 115 118 125 134 134 133 131 130 130
129 130 131 125 121 120 121 120 118 116 115 113 110 107 106 110 116 117 116 115 117 117 118 124 129 131 133 133 133 132 131 126 117 117 121 126 136 139 139 138 135 136 135
135 132 129 130 127 126 125 124 126 122 120 117 114 111 109 110 116 119 117 118 119 120 120 122 131 133 135 139 135 128 127 128 123 124 126 132 143 143 143 142 141 141 141
134 132 133 137 136 134 132 129 128 128 127 124 121 118 117 116 117 119 120 122 124 126 126 126 129 131 134 137 133 127 129 130 120 126 137 138 149 150 149 149 149 148 148
136 145 149 139 133 145 141 136 134 134 133 131 129 126 125 124 126 127 127 130 129 132 133 134 135 136 137 138 134 129 131 131 127 130 134 153 154 154 156 156 155 155 155
142 152 152 140 133 138 144 142 141 137 137 135 132 132 129 120 124 131 137 137 136 137 138 139 141 141 142 139 134 126 119 119 125 135 149 161 161 160 160 160 159 160 159
155 161 155 154 155 156 149 129 129 133 133 127 124 130 123 128 140 141 148 146 146 143 142 143 145 142 130 112 122 121 115 131 137 150 161 165 167 165 163 162 162 163 162
159 157 159 161 162 161 145 135 134 138 137 138 138 140 133 127 131 130 134 145 144 146 135 134 134 113 117 136 130 132 133 137 147 160 164 170 172 169 167 167 167 168 170
146 150 150 151 151 153 145 144 156 156 153 152 154 144 136 133 133 134 137 141 145 137 134 131 126 148 157 166 164 155 146 143 152 156 170 174 173 171 170 171 172 173 174
142 148 150 141 140 144 144 158 153 163 161 158 148 142 141 141 145 146 147 148 153 147 150 148 149 157 157 159 161 149 145 151 153 162 169 173 172 171 173 177 177 178 182
145 148 148 145 144 142 144 146 148 157 153 149 149 145 142 142 145 147 148 154 160 165 164 162 162 151 142 122 112 131 145 149 144 151 158 169 171 173 178 180 182 185 189
151 145 147 149 143 141 143 143 139 147 145 148 152 146 141 140 144 143 143 154 167 159 154 148 146 128 132 116 105 122 139 145 152 159 160 163 171 181 184 186 188 190 192
145 144 151 149 141 137 137 134 133 136 137 142 145 143 144 144 144 139 143 159 163 148 147 144 136 121 115 113 103 90 126 144 162 165 163 162 166 179 191 193 194 195 198
150 147 147 142 144 142 138 132 130 132 138 144 145 146 152 152 147 139 147 160 151 137 141 152 135 134 133 129 129 116 53 140 166 173 168 171 175 177 183 196 199 199 203
151 146 144 144 149 142 128 114 109 113 130 139 148 159 159 160 153 144 149 157 141 129 125 129 134 137 143 149 123 86 24 326 151 174 183 178 182 184 185 191 199 202 204
149 143 144 147 153 143 134 135 135 145 156 155 163 161 161 159 154 147 148 147 139 140 151 146 138 133 125 116 91 46 6 356 14 222 184 172 177 184 180 186 185 193 207
160 154 151 156 158 158 157 154 153 151 159 167 169 162 168 161 157 158 154 157 152 144 144 145 141 133 152 140 131 112 27 356 356 358 155 174 185 180 180 183 184 190 199
164 164 163 164 160 161 153 133 118 98 85 97 149 178 186 168 165 161 161 158 158 155 165 171 159 155 170 193 161 152 155 203 300 342 333 142 166 164 175 173 178 183 184
175 170 165 166 165 163 151 145 148 152 166 188 180 182 186 175 173 170 169 165 165 161 166 181 165 160 156 178 214 197 177 164 160 200 334 341 140 171 182 174 165 166 166
174 170 169 168 170 168 161 160 156 158 172 166 156 164 185 189 183 177 173 173 172 167 172 178 167 165 165 175 186 181 143 135 143 151 200 284 335 273 205 183 166 167 166
170 170 170 168 174 172 167 166 166 164 165 157 165 173 187 190 194 191 176 174 175 174 181 184 183 177 184 186 190 180 170 170 181 164 180 201 227 258 236 206 176 175 175